GFSFLT2_850_dewp_141.txt.gz
Dewpoint
13 14 13 13 12 11 11 11 12 11 11 11 11 10 10 10 10 10 9 9 9 9 8 7 6 5 5 5 5 6 6 6
12 12 12 13 13 13 13 12 12 12 11 11 12 12 12 11 11 11 11 11 11 11 11 10 10 9 9 8 6 5 4 4
6 7 9 10 12 12 12 12 14 13 11 10 10 11 12 12 12 12 12 11 11 11 12 12 12 12 11 11 10 9 7 5
2 2 1 1 1 6 11 12 11 12 12 12 12 12 12 12 12 12 12 12 12 13 14 14 14 13 12 12 12 11 10 9
-0 -1 -2 -2 -3 -1 3 10 12 12 12 13 14 14 13 13 13 13 15 14 14 13 13 13 13 13 12 12 12 12 11 11
-7 -10 -9 -8 -7 -6 -3 1 8 12 13 13 14 15 15 15 14 14 13 14 14 13 12 11 12 12 12 12 12 12 12 12
-7 -7 -7 -6 -4 -3 -1 0 2 6 11 13 13 14 13 13 14 14 13 13 13 13 12 12 12 12 11 11 11 12 12 12
-7 -4 -3 -2 -1 -0 1 3 4 6 7 10 12 13 12 13 13 13 13 13 12 11 11 11 11 11 11 11 11 11 11 11
-6 -4 -2 0 1 2 3 3 4 5 6 8 8 10 10 11 11 11 11 11 11 11 10 10 11 11 10 8 8 8 8 9
-4 -4 -2 -0 1 2 2 3 3 4 5 5 6 7 8 8 9 9 10 10 10 10 10 9 9 8 9 8 9 8 7 7
-3 -2 -1 -1 1 1 1 1 1 1 1 2 2 3 4 5 6 7 7 8 8 8 9 9 8 6 7 7 8 8 7 7
-3 -3 -1 -0 0 0 0 1 0 0 -0 -0 -1 -1 -1 -1 -1 0 1 1 2 2 3 3 3 3 2 2 2 3 2 -3
-3 -3 -1 -0 -0 0 1 1 0 0 -0 -0 -1 -1 -1 -1 -2 -3 -4 -4 -4 -4 -3 -3 -3 -3 -3 -4 -3 -5 -6 -6
-3 -2 -2 -1 -0 -0 0 0 -0 -0 -1 -1 -2 -2 -2 -1 -0 0 -0 -0 -1 -1 -2 -4 -4 -4 -4 -4 -4 -3 1 3
-2 -4 -6 -5 -4 -3 -2 -1 -0 -0 -2 -5 -6 -6 -6 -6 -6 -5 -4 -3 -1 0 0 0 0 0 0 1 3 2 -1 2
-5 -10 -11 -11 -10 -8 -6 -5 -5 -7 -8 -8 -7 -7 -7 -6 -5 -5 -5 -4 -3 -3 -2 -0 0 1 1 2 2 2 2 -0
-7 -10 -12 -13 -13 -12 -11 -10 -10 -8 -7 -6 -6 -6 -5 -5 -5 -4 -3 -3 -3 -2 -1 -1 -1 -0 -0 -0 1 1 1 2
-6 -10 -11 -11 -11 -11 -10 -10 -9 -7 -6 -5 -4 -4 -3 -3 -2 -2 -2 -2 -2 -2 -2 -2 -2 -1 -1 -1 -1 -1 0 0
-5 -8 -10 -10 -10 -10 -9 -8 -7 -6 -5 -4 -3 -3 -3 -3 -3 -2 -2 -2 -2 -3 -3 -2 -2 -1 -1 -1 -1 -1 -1 -1
-5 -8 -9 -9 -9 -9 -8 -7 -5 -5 -4 -3 -3 -3 -3 -3 -3 -3 -3 -3 -3 -3 -3 -3 -3 -3 -2 -2 -2 -2 -2 -2

GFSFLT2_850_dewp_144.txt.gz
Dewpoint
12 11 11 11 11 11 11 10 10 10 10 10 10 10 10 10 11 11 10 10 10 10 10 10 10 9 8 7 6 6 5 5
12 12 12 12 12 12 12 12 11 11 11 11 11 11 11 11 11 11 11 11 11 12 11 11 11 12 12 11 10 9 6 5
9 9 9 9 10 10 12 12 12 12 12 11 11 11 12 12 12 12 12 12 11 11 11 11 11 11 11 11 12 11 11 10
2 1 1 1 0 1 4 9 8 9 12 12 9 11 11 12 12 12 12 13 12 12 12 12 12 12 13 13 12 12 11 11
0 -1 -4 -6 -4 -2 -1 1 5 8 10 12 12 14 13 13 13 13 13 14 14 13 13 13 12 12 11 12 13 12 12 12
-6 -6 -7 -9 -9 -8 -6 -2 3 7 11 13 13 14 13 14 14 13 14 14 12 13 13 13 13 11 11 11 11 12 12 12
-6 -6 -8 -7 -6 -5 -5 -3 -1 3 7 10 12 12 12 13 13 12 13 13 13 12 12 12 11 11 11 10 10 10 11 11
-5 -6 -7 -6 -5 -4 -3 -1 0 2 4 6 9 10 11 11 11 11 11 12 11 11 12 11 11 10 9 9 9 7 6 7
-5 -6 -5 -4 -4 -3 -1 0 1 3 3 4 6 7 9 10 10 10 10 10 10 10 10 10 10 9 8 8 8 9 8 7
-5 -5 -5 -3 -3 -3 -2 -1 0 1 2 3 4 4 5 6 7 7 7 8 8 9 9 9 9 9 9 7 6 6 7 7
-5 -4 -4 -3 -2 -2 -1 -1 -1 -1 -0 -0 -0 0 1 1 2 3 3 3 3 3 3 3 3 4 5 6 6 4 4 7
-4 -4 -4 -3 -2 -2 -1 -1 -1 -0 -1 -1 -1 -2 -2 -2 -2 -2 -1 -1 -1 -2 -2 -3 -2 -2 -1 -0 1 2 0 1
-4 -3 -3 -2 -2 -1 -1 -1 -1 -2 -3 -3 -4 -4 -3 -3 -2 -1 -1 -1 -1 -2 -3 -3 -3 -3 -4 -4 -4 -3 -4 -5
-3 -3 -2 -1 -1 -1 -1 -2 -3 -5 -7 -7 -8 -9 -9 -8 -8 -7 -7 -7 -7 -5 -3 -1 -0 0 0 0 -1 -3 0 6
-3 -3 -3 -2 -2 -3 -5 -6 -7 -8 -10 -11 -12 -12 -11 -10 -9 -9 -9 -8 -8 -7 -5 -4 -4 -3 1 2 2 2 0 -2
-2 -5 -6 -6 -7 -8 -9 -11 -12 -12 -11 -10 -9 -8 -7 -7 -7 -7 -7 -7 -6 -6 -6 -4 -2 -1 -1 1 1 1 2 2
-3 -8 -11 -13 -14 -14 -13 -12 -11 -10 -9 -7 -7 -6 -6 -6 -6 -6 -5 -4 -3 -3 -3 -2 -2 -2 -2 -1 -1 0 1 1
-4 -8 -12 -13 -12 -12 -11 -11 -10 -8 -7 -7 -6 -6 -5 -5 -5 -4 -3 -2 -2 -2 -2 -2 -2 -2 -2 -2 -1 -2 -1 -1
-4 -7 -10 -11 -10 -10 -9 -9 -8 -8 -7 -6 -5 -4 -4 -4 -3 -3 -3 -2 -2 -3 -3 -2 -2 -2 -2 -2 -2 -2 -2 -1
-3 -6 -9 -9 -9 -8 -8 -8 -8 -7 -6 -5 -5 -4 -4 -4 -4 -4 -4 -3 -3 -3 -4 -4 -4 -4 -4 -4 -3 -3 -3 -3

GFSFLT2_850_dewp_147.txt.gz
Dewpoint
11 11 10 10 10 9 9 8 9 9 9 9 9 10 10 11 11 11 11 10 10 10 10 10 10 10 9 8 7 6 7 6
11 11 11 10 10 10 10 11 11 11 11 11 11 11 11 11 11 11 11 11 11 11 11 11 11 11 11 11 11 10 8 7
9 8 8 7 7 8 9 11 11 11 11 12 12 12 12 12 12 12 12 12 12 12 12 12 12 12 11 11 11 11 11 11
5 2 1 1 0 1 2 6 9 10 11 12 12 11 12 12 12 13 13 13 13 13 13 13 12 13 13 13 13 13 12 12
1 -0 -2 -4 -7 -7 -3 1 4 6 7 10 12 13 14 14 13 13 13 13 14 13 13 12 12 13 13 12 12 12 12 12
-0 -4 -7 -7 -8 -9 -9 -5 -1 4 6 8 11 13 13 13 13 13 13 13 13 13 12 13 12 12 11 11 10 10 11 10
-4 -6 -6 -8 -9 -8 -7 -6 -4 -1 2 5 9 11 12 12 12 12 12 12 12 12 12 12 12 11 11 10 9 9 8 8
-5 -5 -6 -8 -7 -5 -4 -3 -2 -1 1 2 5 8 10 10 10 10 11 10 11 11 11 10 11 10 9 9 8 8 8 7
-4 -5 -8 -6 -6 -4 -3 -1 0 1 2 3 4 5 7 8 9 10 9 9 9 9 9 8 8 9 9 9 9 8 7 6
-4 -6 -6 -6 -5 -4 -2 -1 -0 -0 0 1 2 2 3 4 4 5 5 5 5 5 5 5 5 6 5 5 6 7 6 5
-4 -6 -6 -4 -4 -3 -2 -2 -1 -1 -1 -1 -1 -2 -2 -1 -1 -1 -1 -1 -1 -1 -1 -0 -0 0 0 1 1 1 1 3
-4 -5 -6 -5 -3 -3 -2 -2 -1 -1 -1 -2 -3 -3 -3 -3 -3 -3 -2 -2 -2 -2 -2 -2 -2 -2 -2 -3 -3 -3 -2 -1
-4 -5 -6 -5 -3 -2 -2 -1 -1 -3 -5 -7 -9 -10 -11 -11 -10 -10 -10 -9 -10 -9 -9 -8 -5 -4 -4 -3 -2 -2 -3 -1
-3 -4 -4 -4 -2 -2 -2 -3 -5 -8 -11 -13 -14 -15 -16 -15 -15 -15 -14 -14 -13 -12 -12 -11 -9 -8 -5 -2 3 -0 -0 1
-3 -4 -4 -3 -2 -2 -3 -6 -10 -12 -14 -14 -14 -13 -12 -12 -11 -9 -9 -7 -7 -6 -7 -7 -7 -7 -3 -2 2 2 0 2
-3 -3 -3 -3 -3 -3 -5 -8 -12 -14 -14 -12 -11 -10 -9 -8 -7 -7 -6 -5 -4 -4 -4 -4 -4 -4 -4 -2 0 0 1 1
-2 -3 -4 -4 -5 -8 -10 -11 -12 -13 -11 -9 -9 -8 -7 -6 -5 -4 -4 -3 -3 -3 -3 -3 -3 -2 -2 -2 -2 -1 0 0
-2 -4 -6 -8 -11 -13 -12 -12 -11 -10 -9 -8 -7 -6 -5 -5 -4 -4 -3 -3 -3 -3 -3 -3 -3 -3 -2 -2 -2 -2 -1 -1
-2 -5 -9 -12 -12 -12 -11 -10 -9 -8 -7 -6 -6 -5 -5 -5 -5 -5 -5 -4 -5 -4 -4 -3 -3 -3 -3 -3 -3 -2 -2 -3
-2 -5 -10 -11 -11 -11 -10 -9 -8 -7 -6 -5 -5 -6 -6 -6 -6 -7 -7 -7 -8 -9 -9 -8 -6 -5 -4 -4 -4 -4 -4 -4

GFSFLT2_850_dewp_150.txt.gz
Dewpoint
11 11 10 10 9 9 9 9 9 8 8 8 9 9 10 10 11 10 10 9 9 9 9 9 9 9 9 8 7 7 8 11
11 11 11 11 11 11 11 10 10 10 10 10 10 10 10 11 11 12 11 12 11 11 11 11 11 11 11 11 11 10 9 13
11 11 11 11 10 10 11 12 11 11 11 12 12 12 12 12 11 12 12 12 12 12 12 11 12 12 12 11 11 12 14 14
9 8 7 4 2 2 4 8 10 11 12 12 12 13 13 13 12 13 13 13 13 13 13 13 13 13 13 13 13 13 13 13
5 2 0 -2 -5 -5 -3 1 5 8 10 10 11 13 13 13 14 14 14 14 13 13 14 13 13 13 14 13 13 12 14 13
1 -1 -4 -7 -6 -7 -7 -5 -1 3 6 7 8 12 13 13 13 13 13 13 12 12 13 12 12 12 12 12 12 13 12 13
-0 -3 -6 -6 -8 -9 -9 -7 -5 -2 2 6 8 10 12 12 12 12 13 13 12 12 11 11 12 12 11 11 10 10 10 10
-2 -4 -5 -7 -10 -8 -7 -5 -3 -2 0 3 7 9 10 10 11 11 10 10 10 10 11 11 11 10 10 10 9 9 9 8
-3 -5 -5 -8 -9 -6 -5 -3 -2 -0 1 2 4 5 7 9 9 9 10 10 10 9 9 8 8 8 8 7 7 7 7 7
-4 -4 -6 -8 -7 -5 -4 -3 -2 -1 0 1 1 2 3 3 4 4 4 3 3 3 2 2 2 2 1 2 1 1 1 3
-4 -4 -6 -7 -5 -4 -3 -3 -2 -2 -2 -2 -2 -2 -2 -2 -2 -2 -2 -2 -2 -3 -3 -3 -3 -3 -3 -2 -1 -1 -2 3
-3 -4 -5 -6 -4 -4 -3 -3 -2 -1 -1 -2 -3 -4 -4 -4 -5 -5 -6 -7 -8 -9 -10 -10 -10 -11 -11 -6 1 3 6 6
-2 -3 -5 -5 -3 -3 -3 -2 -2 -2 -4 -7 -10 -12 -13 -14 -14 -15 -16 -16 -16 -17 -16 -14 -9 -16 -14 -5 2 5 5 6
-2 -3 -4 -3 -1 2 -0 -2 -3 -6 -10 -13 -15 -15 -15 -14 -14 -13 -13 -12 -12 -11 -11 -8 -2 -8 -4 1 1 2 4 5
-1 -2 -4 -2 0 -2 -2 -3 -6 -10 -12 -14 -13 -13 -13 -12 -11 -11 -10 -9 -9 -8 -8 -6 1 1 -1 1 0 -0 0 1
-1 -2 -4 -3 -2 -1 -2 -1 -3 -8 -13 -13 -12 -11 -11 -10 -10 -10 -9 -8 -7 -5 -4 -3 -1 1 1 1 1 1 1 0
-1 -2 -3 -3 -2 -1 -2 -2 -9 -13 -13 -10 -10 -10 -9 -9 -8 -8 -7 -6 -5 -4 -4 -3 -3 -2 -1 -0 0 1 0 0
-1 -2 -3 -2 -1 -2 -3 -8 -12 -13 -11 -9 -8 -8 -7 -7 -7 -7 -6 -5 -5 -4 -4 -4 -3 -3 -2 -3 -3 -2 -2 -2
0 -1 -2 -3 -2 -3 -6 -10 -12 -12 -10 -9 -8 -7 -7 -7 -7 -7 -6 -6 -7 -7 -8 -9 -9 -7 -5 -4 -4 -3 -3 -3
0 -0 -1 -3 -5 -7 -10 -11 -11 -10 -9 -8 -7 -7 -7 -7 -7 -8 -9 -10 -11 -13 -16 -17 -16 -14 -13 -9 -6 -5 -4 -4